Probability
0 0 0 0 0 0 0 0 0 0 0 0 0 0 0 0 0 0 0 0 0 0 0 0 0 0 0 0 0 0 0 0 0 0 0 0 0 0 0 0 0 0 0 0
0 0 0 0 0 0 0 0 0 0 0 0 0 0 0 0 0 0 0 0 0 0 0 0 0 0 0 0 0 0 0 0 0 0 0 0 0 0 0 0 0 0 0 0
0 0 0 0 0 0 0 0 0 0 0 0 0 0 0 0 0 0 0 0 0 0 0 0 0 0 0 0 0 0 0 0 0 0 0 0 0 0 0 0 0 0 0 0
0 0 0 0 0 0 0 0 0 0 0 0 0 0 0 0 0 0 0 0 0 0 0 0 0 0 0 0 0 0 0 0 0 0 0 0 0 0 0 0 0 0 0 0
0 0 0 0 0 0 0 0 0 0 0 0 0 0 0 0 0 0 0 0 0 0 0 0 0 0 0 0 0 0 0 0 0 0 0 0 0 0 0 0 0 0 0 0
0 0 0 0 0 0 0 0 0 0 0 0 0 0 0 0 0 0 0 0 0 0 0 0 0 0 0 0 0 0 0 0 0 0 0 0 0 0 0 0 0 0 0 0
0 0 0 0 0 0 0 0 0 0 0 0 0 0 0 0 0 0 0 0 0 0 0 0 0 0 0 0 0 0 0 0 0 0 0 0 0 0 0 0 0 0 0 0
0 0 0 0 0 0 0 0 0 0 0 0 0 0 0 0 0 0 0 0 0 0 0 0 0 0 0 0 0 0 0 0 0 0 0 0 0 0 0 0 0 0 0 0
0 0 0 0 0 0 0 0 0 0 0 0 0 0 0 0 0 0 0 0 0 0 0 0 0 0 0 0 0 0 0 0 0 0 0 0 0 0 0 0 0 0 0 0
0 0 0 0 0 0 0 0 0 0 0 0 0 0 0 0 0 0 0 0 0 0 0 0 0 0 0 0 0 0 0 0 0 0 0 0 0 0 0 0 0 0 0 0
0 0 0 0 0 0 0 0 0 0 0 0 0 0 0 0 0 0 0 0 0 0 0 0 0 0 0 0 0 0 0 0 0 0 0 0 0 0 0 0 0 0 0 0
0 0 0 0 0 0 0 0 0 0 0 0 0 0 0 0 0 0 0 0 0 0 0 0 0 0 0 0 0 0 0 0 0 0 0 0 0 0 0 0 0 0 0 0
0 0 0 0 0 0 0 0 0 0 0 0 0 0 0 0 0 0 0 0 0 0 0 0 0 0 0 0 0 0 0 0 0 0 0 0 0 0 0 0 0 0 0 0
0 0 0 0 0 0 0 0 0 0 0 0 0 0 0 0 0 0 0 0 0 0 0 0 0 0 0 0 0 0 0 0 0 0 0 0 0 0 0 0 0 0 0 0
0 0 0 0 0 0 0 0 0 0 0 0 0 0 0 0 0 0 0 0 0 0 0 0 0 0 0 0 0 0 0 0 0 0 0 0 0 0 0 0 0 0 0 0
0 0 0 0 0 0 0 0 0 0 0 0 0 0 0 0 0 0 0 0 0 0 0 0 0 0 0 0 0 0 0 0 0 0 0 0 0 0 0 0 0 0 0 0
0 0 0 0 0 0 0 0 0 0 0 0 0 0 0 0 0 0 0 0 0 0 0 0 0 0 0 0 0 0 0 0 0 0 0 0 0 0 0 0 0 0 0 0
0 0 0 0 0 0 0 0 0 0 0 0 0 0 0 0 0 0 0 0 0 0 0 0 0 0 0 0 0 0 0 0 0 0 0 0 0 0 0 0 0 0 0 0
0 0 0 0 0 0 0 0 0 0 0 0 0 0 0 0 0 0 0 0 0 0 0 0 0 0 0 0 0 0 0 0 0 0 0 0 0 0 0 0 0 0 0 0
0 0 0 0 0 0 0 0 0 0 0 0 0 0 0 0 0 0 0 0 0 0 0 0 0 0 0 0 0 0 0 0 0 0 0 0 0 0 0 0 0 0 0 0
0 0 0 0 0 0 0 0 0 0 0 0 0 0 0 0 0 0 0 0 0 0 0 0 0 0 0 0 0 0 0 0 0 0 0 0 0 0 0 0 0 0 0 0
0 0 0 0 0 0 0 0 0 0 0 0 0 0 0 0 0 0 0 0 0 0 0 0 0 0 0 0 0 0 0 0 0 0 0 0 0 0 0 0 0 0 0 0
0 0 0 0 0 0 0 0 0 0 0 0 0 0 0 0 0 0 0 0 0 0 0 0 0 0 0 0 0 0 0 0 0 0 0 0 0 0 0 0 0 0 0 0
0 0 0 0 0 0 0 0 0 0 0 0 0 0 0 0 0 0 0 0 0 0 0 0 0 0 0 0 0 0 0 0 0 0 0 0 0 0 0 0 0 0 0 0
0 0 0 0 0 0 0 0 0 0 0 0 0 0 0 0 0 0 0 0 0 0 0 0 0 0 0 0 0 0 0 0 0 0 0 0 0 0 0 0 0 0 0 0
0 0 0 0 0 0 0 0 0 0 0 0 0 0 0 0 0 0 0 0 0 0 0 0 0 0 0 0 0 0 0 0 0 0 0 0 0 0 0 0 0 0 0 0
0 0 0 0 0 0 0 0 0 0 0 0 0 0 0 0 0 0 0 0 0 0 0 0 0 0 0 0 0 0 0 0 0 0 0 0 0 0 0 0 0 0 0 0
Wind_Speed
8 6 4 7 10 10 11 11 10 11 12 13 7 5 4 3 2 1 2 2 3 3 3 2 2 1 1 1 1 1 1 1 1 2 1 1 1 1 2 2 2 2 2 2
7 5 5 9 13 12 13 12 13 13 15 8 5 2 3 3 3 4 5 4 4 3 3 3 3 3 2 1 1 0 1 1 1 1 1 1 2 2 2 2 2 2 2 2
6 4 3 12 13 13 10 10 10 15 14 4 4 6 5 4 4 5 5 4 4 4 4 4 4 3 3 2 1 1 1 1 1 1 1 2 2 2 2 2 2 2 2 2
2 0 11 11 4 8 11 11 11 9 6 5 7 6 3 4 5 5 5 4 4 4 4 3 3 2 2 1 2 1 1 1 1 1 2 2 2 2 2 2 2 2 3 2
3 6 12 10 5 5 7 10 9 11 8 5 3 2 4 3 4 5 5 5 4 4 3 2 3 3 2 2 2 2 2 2 2 2 2 2 2 3 2 2 2 2 3 2
5 6 11 8 2 2 3 9 6 8 8 5 2 4 6 3 3 3 3 3 2 1 2 2 2 3 3 3 2 3 3 3 2 2 3 3 3 3 3 2 2 2 3 2
8 9 12 6 2 3 6 8 3 5 6 6 7 7 4 2 2 2 2 2 1 2 2 2 2 3 3 3 4 3 2 2 3 3 3 3 3 2 2 2 2 2 3 3
6 8 13 3 5 7 7 3 2 3 4 5 6 4 3 3 3 2 1 1 1 1 1 1 2 3 3 4 3 2 2 2 3 3 3 2 2 2 2 2 2 2 2 3
10 9 3 4 6 5 2 3 3 3 3 3 3 3 3 3 3 2 2 2 1 2 1 1 2 3 4 3 1 1 2 3 3 3 3 2 2 3 2 2 2 2 2 3
5 7 5 5 4 3 3 4 4 3 3 2 3 3 3 2 2 2 2 2 1 1 2 2 2 3 3 2 1 2 3 3 3 3 3 2 2 2 2 3 3 3 3 4
7 6 5 5 5 5 5 4 3 3 2 2 2 3 3 3 3 2 2 1 2 3 3 3 2 2 2 1 2 2 3 3 3 3 3 3 3 3 4 4 5 5 4 4
8 5 5 6 4 3 3 4 3 2 3 2 2 3 3 3 3 2 2 2 2 3 3 3 2 3 2 2 2 3 3 3 3 3 3 3 3 4 6 6 8 9 9 7
5 3 4 5 3 2 3 4 3 2 3 3 2 2 2 3 3 2 2 2 3 4 3 3 3 3 3 2 3 4 4 4 3 3 3 3 3 3 4 5 6 8 8 8
2 1 3 3 3 3 3 3 2 2 2 2 2 1 2 2 2 2 3 3 2 2 2 2 3 4 3 3 3 4 4 4 4 4 3 3 4 4 4 4 4 4 6 8
3 3 5 4 3 2 2 1 2 2 2 2 2 1 2 2 3 3 2 1 1 1 2 2 3 4 3 3 3 4 4 3 3 3 3 3 3 3 3 4 4 4 4 5
5 3 3 2 3 3 2 1 2 3 3 3 2 2 2 2 2 2 2 1 1 3 3 3 5 4 3 3 3 3 3 4 3 3 3 3 3 3 4 4 4 4 4 4
1 3 3 3 4 4 3 4 4 4 3 3 3 2 1 1 1 2 2 2 2 3 3 4 5 4 3 3 3 3 3 3 4 3 3 3 3 4 4 4 4 5 5 5
5 5 4 4 4 4 5 4 3 3 4 3 2 1 1 2 3 3 3 2 2 3 3 3 4 3 3 3 3 3 2 3 3 3 3 3 3 4 4 4 5 5 4 4
4 4 4 4 4 4 4 4 4 3 3 1 1 2 2 2 2 2 2 2 3 4 4 3 5 3 3 4 3 2 2 3 3 3 3 4 4 4 4 4 5 5 4 3
3 3 3 3 3 2 3 3 3 2 2 1 1 1 2 2 2 2 2 2 3 4 4 4 3 3 3 4 4 2 2 3 3 3 3 3 4 4 4 4 4 4 4 3
3 3 2 3 3 3 3 3 2 2 2 1 2 2 3 3 2 1 2 3 3 3 3 3 3 3 3 3 3 2 3 3 3 3 3 3 4 4 4 4 4 4 4 4
3 3 3 2 2 3 2 1 1 1 1 1 1 1 2 2 2 2 3 4 4 4 3 3 3 4 4 4 2 2 3 3 3 3 3 3 3 4 4 4 4 3 3 3
3 3 2 2 2 2 2 1 1 1 1 1 2 2 2 2 2 2 4 2 3 4 4 3 5 6 6 3 2 2 2 3 3 3 3 3 3 3 4 4 4 3 3 3
3 2 2 2 0 0 1 2 1 1 1 1 2 2 2 2 2 2 3 4 5 6 4 5 7 6 5 2 2 2 3 3 3 3 3 3 3 3 3 3 3 3 3 4
2 2 1 1 1 1 2 1 2 2 2 2 2 2 1 1 2 3 3 4 5 5 4 5 6 6 3 2 2 3 3 3 3 3 3 3 3 3 3 3 3 3 3 3
2 2 2 2 2 2 1 1 1 1 1 2 2 2 2 2 2 2 2 3 4 4 4 3 3 3 2 3 3 3 3 3 3 3 3 3 3 3 3 3 4 4 3 3
1 1 1 1 1 1 1 1 1 2 2 2 3 3 2 2 2 3 3 3 3 3 3 3 3 3 3 3 3 3 3 3 3 3 3 3 3 3 4 4 4 3 3 3
Wind_Direction
254 260 239 241 242 222 218 223 228 245 248 260 258 247 254 259 261 260 254 237 223 220 220 214 217 224 233 268 317 359 348 312 305 321 334 341 329 324 324 319 307 297 298 288
266 266 258 263 254 236 234 235 239 256 263 259 261 246 237 234 227 242 254 249 240 232 221 217 217 217 223 246 279 307 283 304 321 325 326 328 322 316 315 313 312 307 294 282
260 278 308 261 238 220 222 219 210 235 249 253 263 256 238 227 222 232 242 243 240 236 227 223 218 208 210 217 227 247 273 296 317 316 308 309 312 315 308 304 303 300 295 283
233 194 241 245 211 206 223 238 226 236 250 242 246 257 244 217 218 236 235 234 237 233 225 220 206 198 191 180 194 213 248 275 295 302 299 302 299 292 295 296 290 288 287 285
191 236 267 279 245 193 208 252 230 229 243 247 256 309 276 237 219 224 228 230 231 226 212 200 193 179 168 186 203 216 240 258 265 270 277 282 283 287 290 290 291 292 292 286
194 218 245 255 222 196 169 259 240 214 227 229 209 250 259 244 223 228 233 235 232 202 164 180 190 166 172 200 215 233 244 254 256 256 257 262 271 281 286 281 281 290 295 297
214 233 256 256 226 140 193 249 250 220 224 212 218 232 249 237 239 229 230 232 188 160 178 195 180 166 189 213 231 243 257 261 258 255 259 258 266 274 274 275 280 283 289 293
195 225 250 202 151 193 231 277 274 248 232 224 235 239 242 241 244 235 222 205 158 170 210 192 172 177 210 232 246 255 251 255 259 261 261 259 257 267 268 259 261 267 279 289
201 222 251 175 202 235 259 269 273 260 258 236 236 239 243 243 244 233 211 205 183 189 220 218 192 196 224 245 248 243 249 254 261 265 263 259 247 251 256 247 248 259 262 272
246 257 258 254 263 276 270 270 282 273 258 226 237 248 247 245 248 239 225 212 181 179 214 237 227 238 245 260 235 226 243 256 256 255 264 261 255 244 240 238 245 252 256 264
250 269 291 264 248 259 273 279 289 295 270 238 235 259 254 254 253 245 241 218 192 203 223 239 241 251 268 253 219 236 247 255 257 253 252 258 258 249 249 244 238 247 250 251
241 239 235 263 265 262 259 267 272 278 294 292 234 244 256 256 250 243 236 218 220 229 239 249 248 258 259 236 217 225 245 247 246 252 253 254 264 282 271 268 271 269 267 266
249 269 251 278 280 247 249 263 268 257 255 275 276 242 246 256 256 239 230 224 227 231 238 244 247 256 254 236 225 226 238 246 246 244 245 249 252 261 281 290 281 279 277 275
260 288 272 266 269 271 268 276 286 291 289 277 278 277 254 254 254 242 243 243 241 241 249 246 248 256 253 236 232 237 240 244 243 239 237 239 242 249 256 269 285 287 287 285
259 253 256 277 288 297 308 308 299 296 304 309 299 267 243 238 244 256 272 273 260 257 257 251 255 263 258 239 236 241 242 240 240 241 238 238 242 246 250 254 263 279 293 294
287 283 274 264 262 277 289 271 255 266 272 278 281 277 266 255 264 284 293 268 231 256 263 260 261 266 261 248 245 242 241 249 247 238 240 241 239 241 246 250 258 265 269 277
256 273 277 273 268 273 260 250 245 253 258 258 261 269 277 291 300 298 301 294 259 264 270 267 270 278 263 247 244 246 244 246 241 238 236 238 240 241 246 247 251 258 263 267
229 241 244 246 251 258 268 274 270 264 257 256 263 247 241 242 259 277 293 311 311 299 286 278 274 273 266 255 248 250 247 244 239 239 241 241 245 245 246 248 251 256 266 271
247 249 255 256 249 244 254 264 269 266 272 261 234 242 257 264 268 278 294 309 300 294 296 298 302 315 291 278 271 245 243 247 249 248 246 248 251 248 247 249 253 253 256 258
265 261 259 266 267 249 257 265 267 271 271 242 230 259 284 286 283 284 288 277 261 261 283 296 297 289 282 281 290 267 252 250 252 255 251 247 249 253 252 254 255 256 254 253
279 277 272 271 281 278 264 257 249 261 274 232 216 243 266 288 291 281 277 288 287 281 289 293 289 286 285 284 277 262 254 251 251 253 253 254 256 259 259 259 259 258 257 256
286 285 281 280 285 296 301 276 245 248 262 265 268 269 282 294 295 285 256 256 284 303 302 293 286 285 288 286 270 262 261 259 259 260 259 258 258 263 266 266 266 264 263 261
290 286 284 278 271 289 316 319 257 228 236 252 260 264 269 276 276 274 291 290 298 302 302 289 292 296 297 286 273 269 268 268 268 267 265 264 261 261 265 269 269 265 265 265
293 291 291 297 315 343 306 312 324 314 298 293 281 269 268 287 291 260 266 298 306 306 301 291 297 307 319 312 289 280 274 272 271 271 271 272 269 268 268 271 273 271 266 266
296 298 303 311 293 276 275 311 345 349 348 331 315 301 279 256 266 290 295 296 303 309 305 308 312 317 317 295 285 281 278 272 270 272 272 273 273 272 271 270 270 271 268 266
292 288 284 273 270 281 289 308 311 313 324 323 321 317 315 307 291 289 293 297 300 302 300 300 304 302 293 288 285 283 283 285 283 275 271 274 276 276 276 275 275 273 271 270
316 315 315 319 317 301 289 280 283 295 298 299 305 308 312 314 311 308 306 305 306 305 303 303 303 301 297 293 290 287 286 286 285 283 281 279 279 280 281 279 277 276 275 273